Location: Albany
(35.0000°S, 118.0000°E)
Time: 07:59:06
(UTC-04:00)

ISS - All Passes

Search period start: 21 October 2014 00:00
Search period end: 31 October 2014 00:00
Orbit: 413 x 416 km, 51.6° (Epoch: 20 October)

Date Brightness Start Highest point End Pass type
(mag) Time Alt. Az. Time Alt. Az. Time Alt. Az.
21 Oct - 13:14:26 10° NW 13:17:47 76° SW 13:21:10 10° SE visible
21 Oct - 14:53:39 10° SW 14:54:59 12° SSW 14:56:20 10° S visible
21 Oct - 19:46:03 10° SSW 19:49:03 29° SE 19:52:03 10° E daylight
21 Oct - 21:22:54 10° WSW 21:25:39 23° NW 21:28:23 10° N daylight
22 Oct - 12:25:30 10° NNW 12:28:47 53° NE 12:32:05 10° ESE night (unlit)
22 Oct - 14:03:23 10° WSW 14:05:42 17° SSW 14:08:02 10° SSE visible
22 Oct - 18:57:23 10° SSW 18:59:51 19° SSE 19:02:19 10° ESE daylight
22 Oct - 20:33:28 10° WSW 20:36:44 46° NW 20:39:57 10° NNE daylight
23 Oct - 11:36:56 10° N 11:39:48 27° NE 11:42:42 10° ESE night (unlit)
23 Oct - 13:13:33 10° W 13:16:28 26° SW 13:19:23 10° SSE visible
23 Oct - 18:08:57 10° S 18:10:32 13° SSE 18:12:08 10° SE daylight
23 Oct - 19:44:18 10° SW 19:47:41 86° SE 19:51:02 10° NE daylight
24 Oct - 10:49:01 10° NNE 10:50:52 14° NE 10:52:44 10° E night (unlit)
24 Oct - 12:24:00 10° WNW 12:27:15 45° SW 12:30:32 10° SE night (unlit)
24 Oct - 18:55:16 10° SW 18:58:32 44° SE 19:01:46 10° ENE daylight
24 Oct - 20:33:01 10° W 20:34:56 14° NW 20:36:50 10° NNW daylight
25 Oct - 11:34:43 10° NW 11:38:05 89° SW 11:41:29 10° SE night (unlit)
25 Oct - 13:13:34 10° SW 13:15:13 13° SSW 13:16:51 10° S visible
25 Oct - 18:06:22 10° SSW 18:09:17 26° SE 18:12:10 10° E daylight
25 Oct - 19:43:01 10° WSW 19:45:56 27° NW 19:48:50 10° N daylight
26 Oct - 10:45:44 10° NNW 10:48:57 44° NE 10:52:12 10° ESE night (unlit)
26 Oct - 12:23:18 10° WSW 12:25:48 19° SSW 12:28:18 10° SSE night (unlit)
26 Oct - 17:17:37 10° SSW 17:19:55 17° SSE 17:22:12 10° ESE daylight
26 Oct - 18:53:32 10° SW 18:56:51 55° NW 19:00:07 10° NNE daylight
27 Oct - 09:57:09 10° N 09:59:51 23° NE 10:02:34 10° ESE night (unlit)
27 Oct - 11:33:25 10° W 11:36:25 30° SW 11:39:28 10° SSE night (unlit)
27 Oct - 16:29:10 10° S 16:30:26 12° SSE 16:31:42 10° SE visible
27 Oct - 18:04:16 10° SW 18:07:39 73° SE 18:10:59 10° NE daylight
28 Oct - 09:09:27 10° NNE 09:10:47 12° NE 09:12:07 10° ENE night (unlit)
28 Oct - 10:43:48 10° WNW 10:47:05 53° SW 10:50:25 10° SE night (unlit)
28 Oct - 17:15:08 10° SSW 17:18:20 38° SE 17:21:30 10° ENE daylight
28 Oct - 18:52:31 10° W 18:54:47 17° NW 18:57:02 10° N daylight
29 Oct - 09:54:27 10° NW 09:57:48 77° NE 10:01:11 10° SE night (unlit)
29 Oct - 11:32:56 10° WSW 11:34:51 14° SSW 11:36:45 10° S night (unlit)
29 Oct - 16:26:08 10° SSW 16:28:55 23° SSE 16:31:40 10° E visible
29 Oct - 18:02:34 10° WSW 18:05:38 32° NW 18:08:40 10° NNE daylight
30 Oct - 09:05:25 10° NNW 09:08:32 37° NE 09:11:41 10° ESE night (unlit)
30 Oct - 10:42:39 10° W 10:45:18 21° SSW 10:47:59 10° SSE night (unlit)
30 Oct - 15:37:18 10° S 15:39:23 15° SSE 15:41:27 10° ESE visible
30 Oct - 17:13:01 10° SW 17:16:22 67° NW 17:19:42 10° NE daylight
